Year,Month,Day,Hour,Minute,Value (Times are PST for temperature in C)
2013,05,04,00,00,13.40
2013,05,04,00,01,13.50
2013,05,04,00,02,13.60
2013,05,04,00,03,13.60
2013,05,04,00,04,13.70
2013,05,04,00,05,13.80
2013,05,04,00,06,13.80
2013,05,04,00,07,13.90
2013,05,04,00,08,13.90
2013,05,04,00,09,13.90
2013,05,04,00,10,14.00
2013,05,04,00,11,14.00
2013,05,04,00,12,14.10
2013,05,04,00,13,14.10
2013,05,04,00,14,14.20
2013,05,04,00,15,14.20
2013,05,04,00,16,14.20
2013,05,04,00,17,14.20
2013,05,04,00,18,14.20
2013,05,04,00,19,14.20
2013,05,04,00,20,14.20
2013,05,04,00,21,14.20
2013,05,04,00,22,14.20
2013,05,04,00,23,14.20
2013,05,04,00,24,14.20
2013,05,04,00,25,14.20
2013,05,04,00,26,14.20
2013,05,04,00,27,14.20
2013,05,04,00,28,14.20
2013,05,04,00,29,14.20
2013,05,04,00,30,14.20
2013,05,04,00,31,14.20
2013,05,04,00,32,14.30
2013,05,04,00,33,14.30
2013,05,04,00,34,14.30
2013,05,04,00,35,14.30
2013,05,04,00,36,14.30
2013,05,04,00,37,14.30
2013,05,04,00,38,14.40
2013,05,04,00,39,14.40
2013,05,04,00,40,14.40
2013,05,04,00,41,14.40
2013,05,04,00,42,14.40
2013,05,04,00,43,14.40
2013,05,04,00,44,14.40
2013,05,04,00,45,14.30
2013,05,04,00,46,14.30
2013,05,04,00,47,14.30
2013,05,04,00,48,14.30
2013,05,04,00,49,14.30
2013,05,04,00,50,14.30
2013,05,04,00,51,14.30
2013,05,04,00,52,14.20
2013,05,04,00,53,14.20
2013,05,04,00,54,14.20
2013,05,04,00,55,14.10
2013,05,04,00,56,14.10
2013,05,04,00,57,14.00
2013,05,04,00,58,14.00
2013,05,04,00,59,13.90
2013,05,04,01,00,13.90
2013,05,04,01,01,13.80
2013,05,04,01,02,13.70
2013,05,04,01,03,13.70
2013,05,04,01,04,13.60
2013,05,04,01,05,13.60
2013,05,04,01,06,13.50
2013,05,04,01,07,13.50
2013,05,04,01,08,13.50
2013,05,04,01,09,13.50
2013,05,04,01,10,13.50
2013,05,04,01,11,13.50
2013,05,04,01,12,13.50
2013,05,04,01,13,13.50
2013,05,04,01,14,13.50
2013,05,04,01,15,13.60
2013,05,04,01,16,13.50
2013,05,04,01,17,13.50
2013,05,04,01,18,13.50
2013,05,04,01,19,13.50
2013,05,04,01,20,13.40
2013,05,04,01,21,13.40
2013,05,04,01,22,13.40
2013,05,04,01,23,13.30
2013,05,04,01,24,13.20
2013,05,04,01,25,13.20
2013,05,04,01,26,13.10
2013,05,04,01,27,13.00
2013,05,04,01,28,12.90
2013,05,04,01,29,12.80
2013,05,04,01,30,12.70
2013,05,04,01,31,12.70
2013,05,04,01,32,12.60
2013,05,04,01,33,12.60
2013,05,04,01,34,12.60
2013,05,04,01,35,12.60
2013,05,04,01,36,12.60
2013,05,04,01,37,12.60
2013,05,04,01,38,12.60
2013,05,04,01,39,12.70
2013,05,04,01,40,12.70
2013,05,04,01,41,12.70
2013,05,04,01,42,12.80
2013,05,04,01,43,12.80
2013,05,04,01,44,12.90
2013,05,04,01,45,13.00
2013,05,04,01,46,13.00
2013,05,04,01,47,13.10
2013,05,04,01,48,13.20
2013,05,04,01,49,13.20
2013,05,04,01,50,13.20
2013,05,04,01,51,13.20
2013,05,04,01,52,13.20
2013,05,04,01,53,13.30
2013,05,04,01,54,13.20
2013,05,04,01,55,13.20
2013,05,04,01,56,13.20
2013,05,04,01,57,13.20
2013,05,04,01,58,13.20
2013,05,04,01,59,13.20
2013,05,04,02,00,13.20
2013,05,04,02,01,13.20
2013,05,04,02,02,13.20
2013,05,04,02,03,13.20
2013,05,04,02,04,13.20
2013,05,04,02,05,13.20
2013,05,04,02,06,13.20
2013,05,04,02,07,13.20
2013,05,04,02,08,13.10
2013,05,04,02,09,13.00
2013,05,04,02,10,12.90
2013,05,04,02,11,12.80
2013,05,04,02,12,12.70
2013,05,04,02,13,12.70
2013,05,04,02,14,12.70
2013,05,04,02,15,12.60
2013,05,04,02,16,12.60
2013,05,04,02,17,12.60
2013,05,04,02,18,12.50
2013,05,04,02,19,12.50
2013,05,04,02,20,12.40
2013,05,04,02,21,12.30
2013,05,04,02,22,12.30
2013,05,04,02,23,12.30
2013,05,04,02,24,12.40
2013,05,04,02,25,12.50
2013,05,04,02,26,12.50
2013,05,04,02,27,12.60
2013,05,04,02,28,12.70
2013,05,04,02,29,12.70
2013,05,04,02,30,12.80
2013,05,04,02,31,12.80
2013,05,04,02,32,12.90
2013,05,04,02,33,12.90
2013,05,04,02,34,12.90
2013,05,04,02,35,12.90
2013,05,04,02,36,12.90
2013,05,04,02,37,12.90
2013,05,04,02,38,12.90
2013,05,04,02,39,12.90
2013,05,04,02,40,12.90
2013,05,04,02,41,12.90
2013,05,04,02,42,12.80
2013,05,04,02,43,12.80
2013,05,04,02,44,12.80
2013,05,04,02,45,12.80
2013,05,04,02,46,12.80
2013,05,04,02,47,12.80
2013,05,04,02,48,12.70
2013,05,04,02,49,12.70
2013,05,04,02,50,12.60
2013,05,04,02,51,12.50
2013,05,04,02,52,12.40
2013,05,04,02,53,12.30
2013,05,04,02,54,12.10
2013,05,04,02,55,12.00
2013,05,04,02,56,11.90
2013,05,04,02,57,11.80
2013,05,04,02,58,11.60
2013,05,04,02,59,11.50
2013,05,04,03,00,11.40
2013,05,04,03,01,11.30
2013,05,04,03,02,11.20
2013,05,04,03,03,11.10
2013,05,04,03,04,11.00
2013,05,04,03,05,10.90
2013,05,04,03,06,10.80
2013,05,04,03,07,10.70
2013,05,04,03,08,10.70
2013,05,04,03,09,10.60
2013,05,04,03,10,10.50
2013,05,04,03,11,10.40
2013,05,04,03,12,10.40
2013,05,04,03,13,10.30
2013,05,04,03,14,10.30
2013,05,04,03,15,10.30
2013,05,04,03,16,10.20
2013,05,04,03,17,10.20
2013,05,04,03,18,10.10
2013,05,04,03,19,10.10
2013,05,04,03,20,10.10
2013,05,04,03,21,10.10
2013,05,04,03,22,10.10
2013,05,04,03,23,10.10
2013,05,04,03,24,10.10
2013,05,04,03,25,10.20
2013,05,04,03,26,10.30
2013,05,04,03,27,10.40
2013,05,04,03,28,10.50
2013,05,04,03,29,10.70
2013,05,04,03,30,10.90
2013,05,04,03,31,11.20
2013,05,04,03,32,11.30
2013,05,04,03,33,11.50
2013,05,04,03,34,11.60
2013,05,04,03,35,11.70
2013,05,04,03,36,11.80
2013,05,04,03,37,11.90
2013,05,04,03,38,12.00
2013,05,04,03,39,12.10
2013,05,04,03,40,12.10
2013,05,04,03,41,12.10
2013,05,04,03,42,12.10
2013,05,04,03,43,12.10
2013,05,04,03,44,12.10
2013,05,04,03,45,12.10
2013,05,04,03,46,12.10
2013,05,04,03,47,12.00
2013,05,04,03,48,12.00
2013,05,04,03,49,11.90
2013,05,04,03,50,11.90
2013,05,04,03,51,11.80
2013,05,04,03,52,11.80
2013,05,04,03,53,11.80
2013,05,04,03,54,11.70
2013,05,04,03,55,11.60
2013,05,04,03,56,11.60
2013,05,04,03,57,11.60
2013,05,04,03,58,11.50
2013,05,04,03,59,11.40
2013,05,04,04,00,11.40
2013,05,04,04,01,11.30
2013,05,04,04,02,11.20
2013,05,04,04,03,11.20
2013,05,04,04,04,11.10
2013,05,04,04,05,11.00
2013,05,04,04,06,10.90
2013,05,04,04,07,10.80
2013,05,04,04,08,10.80
2013,05,04,04,09,10.70
2013,05,04,04,10,10.70
2013,05,04,04,11,10.70
2013,05,04,04,12,10.60
2013,05,04,04,13,10.60
2013,05,04,04,14,10.60
2013,05,04,04,15,10.50
2013,05,04,04,16,10.50
2013,05,04,04,17,10.40
2013,05,04,04,18,10.40
2013,05,04,04,19,10.40
2013,05,04,04,20,10.30
2013,05,04,04,21,10.30
2013,05,04,04,22,10.30
2013,05,04,04,23,10.20
2013,05,04,04,24,10.20
2013,05,04,04,25,10.10
2013,05,04,04,26,10.10
2013,05,04,04,27,10.00
2013,05,04,04,28,10.00
2013,05,04,04,29,9.90
2013,05,04,04,30,9.90
2013,05,04,04,31,9.80
2013,05,04,04,32,9.80
2013,05,04,04,33,9.80
2013,05,04,04,34,9.80
2013,05,04,04,35,9.80
2013,05,04,04,36,9.80
2013,05,04,04,37,9.80
2013,05,04,04,38,9.80
2013,05,04,04,39,9.80
2013,05,04,04,40,9.80
2013,05,04,04,41,9.80
2013,05,04,04,42,9.70
2013,05,04,04,43,9.70
2013,05,04,04,44,9.70
2013,05,04,04,45,9.60
2013,05,04,04,46,9.60
2013,05,04,04,47,9.50
2013,05,04,04,48,9.50
2013,05,04,04,49,9.40
2013,05,04,04,50,9.40
2013,05,04,04,51,9.40
2013,05,04,04,52,9.40
2013,05,04,04,53,9.30
2013,05,04,04,54,9.40
2013,05,04,04,55,9.40
2013,05,04,04,56,9.40
2013,05,04,04,57,9.40
2013,05,04,04,58,9.50
2013,05,04,04,59,9.60
2013,05,04,05,00,9.70
2013,05,04,05,01,9.80
2013,05,04,05,02,10.00
2013,05,04,05,03,10.10
2013,05,04,05,04,10.20
2013,05,04,05,05,10.20
2013,05,04,05,06,10.30
2013,05,04,05,07,10.30
2013,05,04,05,08,10.30
2013,05,04,05,09,10.40
2013,05,04,05,10,10.40
2013,05,04,05,11,10.40
2013,05,04,05,12,10.40
2013,05,04,05,13,10.40
2013,05,04,05,14,10.30
2013,05,04,05,15,10.30
2013,05,04,05,16,10.30
2013,05,04,05,17,10.20
2013,05,04,05,18,10.10
2013,05,04,05,19,10.00
2013,05,04,05,20,10.00
2013,05,04,05,21,9.90
2013,05,04,05,22,9.80
2013,05,04,05,23,9.70
2013,05,04,05,24,9.60
2013,05,04,05,25,9.60
2013,05,04,05,26,9.50
2013,05,04,05,27,9.40
2013,05,04,05,28,9.40
2013,05,04,05,29,9.30
2013,05,04,05,30,9.20
2013,05,04,05,31,9.20
2013,05,04,05,32,9.10
2013,05,04,05,33,9.10
2013,05,04,05,34,9.00
2013,05,04,05,35,8.90
2013,05,04,05,36,8.90
2013,05,04,05,37,8.90
2013,05,04,05,38,8.80
2013,05,04,05,39,8.80
2013,05,04,05,40,8.70
2013,05,04,05,41,8.70
2013,05,04,05,42,8.70
2013,05,04,05,43,8.60
2013,05,04,05,44,8.60
2013,05,04,05,45,8.60
2013,05,04,05,46,8.60
2013,05,04,05,47,8.60
2013,05,04,05,48,8.60
2013,05,04,05,49,8.60
2013,05,04,05,50,8.70
2013,05,04,05,51,8.80
2013,05,04,05,52,8.90
2013,05,04,05,53,9.00
2013,05,04,05,54,9.20
2013,05,04,05,55,9.30
2013,05,04,05,56,9.50
2013,05,04,05,57,9.60
2013,05,04,05,58,9.70
2013,05,04,05,59,9.80
2013,05,04,06,00,9.90
2013,05,04,06,01,9.90
2013,05,04,06,02,10.00
2013,05,04,06,03,10.10
2013,05,04,06,04,10.20
2013,05,04,06,05,10.30
2013,05,04,06,06,10.30
2013,05,04,06,07,10.40
2013,05,04,06,08,10.40
2013,05,04,06,09,10.40
2013,05,04,06,10,10.40
2013,05,04,06,11,10.50
2013,05,04,06,12,10.50
2013,05,04,06,13,10.50
2013,05,04,06,14,10.50
2013,05,04,06,15,10.50
2013,05,04,06,16,10.50
2013,05,04,06,17,10.50
2013,05,04,06,18,10.60
2013,05,04,06,19,10.60
2013,05,04,06,20,10.60
2013,05,04,06,21,10.60
2013,05,04,06,22,10.60
2013,05,04,06,23,10.60
2013,05,04,06,24,10.60
2013,05,04,06,25,10.60
2013,05,04,06,26,10.60
2013,05,04,06,27,10.60
2013,05,04,06,28,10.60
2013,05,04,06,29,10.60
2013,05,04,06,30,10.60
2013,05,04,06,31,10.60
2013,05,04,06,32,10.60
2013,05,04,06,33,10.60
2013,05,04,06,34,10.60
2013,05,04,06,35,10.60
2013,05,04,06,36,10.60
2013,05,04,06,37,10.70
2013,05,04,06,38,10.70
2013,05,04,06,39,10.70
2013,05,04,06,40,10.70
2013,05,04,06,41,10.70
2013,05,04,06,42,10.70
2013,05,04,06,43,10.70
2013,05,04,06,44,10.70
2013,05,04,06,45,10.70
2013,05,04,06,46,10.70
2013,05,04,06,47,10.80
2013,05,04,06,48,10.80
2013,05,04,06,49,10.80
2013,05,04,06,50,10.90
2013,05,04,06,51,10.90
2013,05,04,06,52,11.00
2013,05,04,06,53,11.00
2013,05,04,06,54,11.10
2013,05,04,06,55,11.20
2013,05,04,06,56,11.20
2013,05,04,06,57,11.30
2013,05,04,06,58,11.30
2013,05,04,06,59,11.40
2013,05,04,07,00,11.40
2013,05,04,07,01,11.50
2013,05,04,07,02,11.60
2013,05,04,07,03,11.60
2013,05,04,07,04,11.60
2013,05,04,07,05,11.70
2013,05,04,07,06,11.70
2013,05,04,07,07,11.70
2013,05,04,07,08,11.80
2013,05,04,07,09,11.80
2013,05,04,07,10,11.90
2013,05,04,07,11,11.90
2013,05,04,07,12,11.90
2013,05,04,07,13,12.00
2013,05,04,07,14,12.00
2013,05,04,07,15,12.10
2013,05,04,07,16,12.10
2013,05,04,07,17,12.20
2013,05,04,07,18,12.20
2013,05,04,07,19,12.30
2013,05,04,07,20,12.30
2013,05,04,07,21,12.30
2013,05,04,07,22,12.40
2013,05,04,07,23,12.40
2013,05,04,07,24,12.40
2013,05,04,07,25,12.40
2013,05,04,07,26,12.50
2013,05,04,07,27,12.50
2013,05,04,07,28,12.50
2013,05,04,07,29,12.60
2013,05,04,07,30,12.60
2013,05,04,07,31,12.60
2013,05,04,07,32,12.70
2013,05,04,07,33,12.70
2013,05,04,07,34,12.70
2013,05,04,07,35,12.80
2013,05,04,07,36,12.80
2013,05,04,07,37,12.80
2013,05,04,07,38,12.90
2013,05,04,07,39,12.90
2013,05,04,07,40,12.90
2013,05,04,07,41,13.00
2013,05,04,07,42,13.00
2013,05,04,07,43,13.10
2013,05,04,07,44,13.10
2013,05,04,07,45,13.10
2013,05,04,07,46,13.10
2013,05,04,07,47,13.20
2013,05,04,07,48,13.20
2013,05,04,07,49,13.20
2013,05,04,07,50,13.20
2013,05,04,07,51,13.30
2013,05,04,07,52,13.30
2013,05,04,07,53,13.30
2013,05,04,07,54,13.30
2013,05,04,07,55,13.30
2013,05,04,07,56,13.30
2013,05,04,07,57,13.30
2013,05,04,07,58,13.30
2013,05,04,07,59,13.30
2013,05,04,08,00,13.30
2013,05,04,08,01,13.30
2013,05,04,08,02,13.30
2013,05,04,08,03,13.40
2013,05,04,08,04,13.40
2013,05,04,08,05,13.40
2013,05,04,08,06,13.40
2013,05,04,08,07,13.40
2013,05,04,08,08,13.40
2013,05,04,08,09,13.40
2013,05,04,08,10,13.40
2013,05,04,08,11,13.40
2013,05,04,08,12,13.40
2013,05,04,08,13,13.40
2013,05,04,08,14,13.50
2013,05,04,08,15,13.50
2013,05,04,08,16,13.60
2013,05,04,08,17,13.60
2013,05,04,08,18,13.60
2013,05,04,08,19,13.70
2013,05,04,08,20,13.70
2013,05,04,08,21,13.80
2013,05,04,08,22,13.80
2013,05,04,08,23,13.80
2013,05,04,08,24,13.90
2013,05,04,08,25,13.90
2013,05,04,08,26,13.90
2013,05,04,08,27,13.90
2013,05,04,08,28,14.00
2013,05,04,08,29,14.00
2013,05,04,08,30,14.00
2013,05,04,08,31,14.00
2013,05,04,08,32,14.10
2013,05,04,08,33,14.10
2013,05,04,08,34,14.10
2013,05,04,08,35,14.10
2013,05,04,08,36,14.10
2013,05,04,08,37,14.20
2013,05,04,08,38,14.20
2013,05,04,08,39,14.20
2013,05,04,08,40,14.30
2013,05,04,08,41,14.30
2013,05,04,08,42,14.30
2013,05,04,08,43,14.30
2013,05,04,08,44,14.30
2013,05,04,08,45,14.30
2013,05,04,08,46,14.30
2013,05,04,08,47,14.30
2013,05,04,08,48,14.30
2013,05,04,08,49,14.30
2013,05,04,08,50,14.40
2013,05,04,08,51,14.40
2013,05,04,08,52,14.40
2013,05,04,08,53,14.40
2013,05,04,08,54,14.40
2013,05,04,08,55,14.40
2013,05,04,08,56,14.40
2013,05,04,08,57,14.40
2013,05,04,08,58,14.40
2013,05,04,08,59,14.40
2013,05,04,09,00,14.40
2013,05,04,09,01,14.40
2013,05,04,09,02,14.40
2013,05,04,09,03,14.40
2013,05,04,09,04,14.40
2013,05,04,09,05,14.40
2013,05,04,09,06,14.40
2013,05,04,09,07,14.30
2013,05,04,09,08,14.30
2013,05,04,09,09,14.20
2013,05,04,09,10,14.20
2013,05,04,09,11,14.10
2013,05,04,09,12,14.10
2013,05,04,09,13,14.00
2013,05,04,09,14,13.90
2013,05,04,09,15,13.90
2013,05,04,09,16,13.90
2013,05,04,09,17,13.90
2013,05,04,09,18,13.90
2013,05,04,09,19,13.90
2013,05,04,09,20,13.90
2013,05,04,09,21,14.00
2013,05,04,09,22,14.00
2013,05,04,09,23,14.00
2013,05,04,09,24,14.10
2013,05,04,09,25,14.10
2013,05,04,09,26,14.10
2013,05,04,09,27,14.10
2013,05,04,09,28,14.20
2013,05,04,09,29,14.20
2013,05,04,09,30,14.20
2013,05,04,09,31,14.20
2013,05,04,09,32,14.20
2013,05,04,09,33,14.20
2013,05,04,09,34,14.30
2013,05,04,09,35,14.30
2013,05,04,09,36,14.30
2013,05,04,09,37,14.30
2013,05,04,09,38,14.30
2013,05,04,09,39,14.40
2013,05,04,09,40,14.40
2013,05,04,09,41,14.40
2013,05,04,09,42,14.40
2013,05,04,09,43,14.40
2013,05,04,09,44,14.30
2013,05,04,09,45,14.30
2013,05,04,09,46,14.30
2013,05,04,09,47,14.30
2013,05,04,09,48,14.30
2013,05,04,09,49,14.20
2013,05,04,09,50,14.20
2013,05,04,09,51,14.20
2013,05,04,09,52,14.20
2013,05,04,09,53,14.20
2013,05,04,09,54,14.20
2013,05,04,09,55,14.20
2013,05,04,09,56,14.10
2013,05,04,09,57,14.10
2013,05,04,09,58,14.00
2013,05,04,09,59,14.00
2013,05,04,10,00,14.00
2013,05,04,10,01,13.90
2013,05,04,10,02,13.90
2013,05,04,10,03,13.90
2013,05,04,10,04,13.90
2013,05,04,10,05,13.80
2013,05,04,10,06,13.70
2013,05,04,10,07,13.70
2013,05,04,10,08,13.70
2013,05,04,10,09,13.70
2013,05,04,10,10,13.70
2013,05,04,10,11,13.70
2013,05,04,10,12,13.70
2013,05,04,10,13,13.80
2013,05,04,10,14,13.80
2013,05,04,10,15,13.80
2013,05,04,10,16,13.80
2013,05,04,10,17,13.80
2013,05,04,10,18,13.80
2013,05,04,10,19,13.80
2013,05,04,10,20,13.70
2013,05,04,10,21,13.70
2013,05,04,10,22,13.70
2013,05,04,10,23,13.60
2013,05,04,10,24,13.60
2013,05,04,10,25,13.60
2013,05,04,10,26,13.50
2013,05,04,10,27,13.50
2013,05,04,10,28,13.50
2013,05,04,10,29,13.50
2013,05,04,10,30,13.40
2013,05,04,10,31,13.30
2013,05,04,10,32,13.30
2013,05,04,10,33,13.30
2013,05,04,10,34,13.30
2013,05,04,10,35,13.30
2013,05,04,10,36,13.20
2013,05,04,10,37,13.20
2013,05,04,10,38,13.20
2013,05,04,10,39,13.10
2013,05,04,10,40,13.10
2013,05,04,10,41,13.10
2013,05,04,10,42,13.20
2013,05,04,10,43,13.20
2013,05,04,10,44,13.20
2013,05,04,10,45,13.20
2013,05,04,10,46,13.20
2013,05,04,10,47,13.20
2013,05,04,10,48,13.20
2013,05,04,10,49,13.20
2013,05,04,10,50,13.20
2013,05,04,10,51,13.20
2013,05,04,10,52,13.20
2013,05,04,10,53,13.20
2013,05,04,10,54,13.20
2013,05,04,10,55,13.20
2013,05,04,10,56,13.20
2013,05,04,10,57,13.30
2013,05,04,10,58,13.30
2013,05,04,10,59,13.30
2013,05,04,11,00,13.40
2013,05,04,11,01,13.50
2013,05,04,11,02,13.60
2013,05,04,11,03,13.60
2013,05,04,11,04,13.70
2013,05,04,11,05,13.80
2013,05,04,11,06,13.80
2013,05,04,11,07,13.90
2013,05,04,11,08,14.00
2013,05,04,11,09,14.00
2013,05,04,11,10,14.10
2013,05,04,11,11,14.10
2013,05,04,11,12,14.20
2013,05,04,11,13,14.20
2013,05,04,11,14,14.20
2013,05,04,11,15,14.20
2013,05,04,11,16,14.20
2013,05,04,11,17,14.30
2013,05,04,11,18,14.30
2013,05,04,11,19,14.30
2013,05,04,11,20,14.30
2013,05,04,11,21,14.30
2013,05,04,11,22,14.40
2013,05,04,11,23,14.40
2013,05,04,11,24,14.40
2013,05,04,11,25,14.50
2013,05,04,11,26,14.50
2013,05,04,11,27,14.50
2013,05,04,11,28,14.40
2013,05,04,11,29,14.40
2013,05,04,11,30,14.40
2013,05,04,11,31,14.40
2013,05,04,11,32,14.40
2013,05,04,11,33,14.30
2013,05,04,11,34,14.20
2013,05,04,11,35,14.10
2013,05,04,11,36,14.10
2013,05,04,11,37,14.10
2013,05,04,11,38,14.00
2013,05,04,11,39,14.00
2013,05,04,11,40,13.90
2013,05,04,11,41,13.90
2013,05,04,11,42,13.90
2013,05,04,11,43,14.00
2013,05,04,11,44,14.10
2013,05,04,11,45,14.10
2013,05,04,11,46,14.10
2013,05,04,11,47,14.20
2013,05,04,11,48,14.30
2013,05,04,11,49,14.30
2013,05,04,11,50,14.40
2013,05,04,11,51,14.50
2013,05,04,11,52,14.50
2013,05,04,11,53,14.60
2013,05,04,11,54,14.60
2013,05,04,11,55,14.60
2013,05,04,11,56,14.70
2013,05,04,11,57,14.80
2013,05,04,11,58,14.80
2013,05,04,11,59,14.90
2013,05,04,12,00,14.90
2013,05,04,12,01,14.90
2013,05,04,12,02,14.90
2013,05,04,12,03,15.00
2013,05,04,12,04,15.00
2013,05,04,12,05,15.00
2013,05,04,12,06,14.90
2013,05,04,12,07,14.90
2013,05,04,12,08,14.90
2013,05,04,12,09,15.00
2013,05,04,12,10,15.00
2013,05,04,12,11,15.00
2013,05,04,12,12,14.90
2013,05,04,12,13,14.80
2013,05,04,12,14,14.80
2013,05,04,12,15,14.80
2013,05,04,12,16,14.80
2013,05,04,12,17,14.80
2013,05,04,12,18,14.80
2013,05,04,12,19,14.80
2013,05,04,12,20,14.80
2013,05,04,12,21,14.80
2013,05,04,12,22,14.80
2013,05,04,12,23,14.80
2013,05,04,12,24,14.80
2013,05,04,12,25,14.80
2013,05,04,12,26,14.90
2013,05,04,12,27,14.80
2013,05,04,12,28,14.90
2013,05,04,12,29,14.80
2013,05,04,12,30,14.80
2013,05,04,12,31,14.80
2013,05,04,12,32,14.80
2013,05,04,12,33,14.80
2013,05,04,12,34,14.70
2013,05,04,12,35,14.70
2013,05,04,12,36,14.70
2013,05,04,12,37,14.70
2013,05,04,12,38,14.70
2013,05,04,12,39,14.70
2013,05,04,12,40,14.70
2013,05,04,12,41,14.80
2013,05,04,12,42,14.80
2013,05,04,12,43,14.80
2013,05,04,12,44,14.80
2013,05,04,12,45,14.80
2013,05,04,12,46,14.80
2013,05,04,12,47,14.80
2013,05,04,12,48,14.80
2013,05,04,12,49,14.80
2013,05,04,12,50,14.90
2013,05,04,12,51,14.90
2013,05,04,12,52,14.90
2013,05,04,12,53,15.00
2013,05,04,12,54,15.00
2013,05,04,12,55,15.00
2013,05,04,12,56,15.00
2013,05,04,12,57,15.00
2013,05,04,12,58,15.00
2013,05,04,12,59,15.10
2013,05,04,13,00,15.10
2013,05,04,13,01,15.20
2013,05,04,13,02,15.20
2013,05,04,13,03,15.20
2013,05,04,13,04,15.20
2013,05,04,13,05,15.30
2013,05,04,13,06,15.30
2013,05,04,13,07,15.30
2013,05,04,13,08,15.40
2013,05,04,13,09,15.40
2013,05,04,13,10,15.40
2013,05,04,13,11,15.50
2013,05,04,13,12,15.50
2013,05,04,13,13,15.50
2013,05,04,13,14,15.40
2013,05,04,13,15,15.40
2013,05,04,13,16,15.50
2013,05,04,13,17,15.60
2013,05,04,13,18,15.60
2013,05,04,13,19,15.60
2013,05,04,13,20,15.70
2013,05,04,13,21,15.70
2013,05,04,13,22,15.70
2013,05,04,13,23,15.70
2013,05,04,13,24,15.60
2013,05,04,13,25,15.70
2013,05,04,13,26,15.70
2013,05,04,13,27,15.70
2013,05,04,13,28,15.70
2013,05,04,13,29,15.80
2013,05,04,13,30,15.80
2013,05,04,13,31,15.80
2013,05,04,13,32,15.90
2013,05,04,13,33,15.90
2013,05,04,13,34,15.90
2013,05,04,13,35,15.90
2013,05,04,13,36,16.00
2013,05,04,13,37,16.00
2013,05,04,13,38,16.00
2013,05,04,13,39,16.10
2013,05,04,13,40,16.10
2013,05,04,13,41,16.10
2013,05,04,13,42,16.10
2013,05,04,13,43,16.10
2013,05,04,13,44,16.10
2013,05,04,13,45,16.10
2013,05,04,13,46,16.10
2013,05,04,13,47,16.20
2013,05,04,13,48,16.20
2013,05,04,13,49,16.20
2013,05,04,13,50,16.30
2013,05,04,13,51,16.30
2013,05,04,13,52,16.30
2013,05,04,13,53,16.30
2013,05,04,13,54,16.30
2013,05,04,13,55,16.30
2013,05,04,13,56,16.30
2013,05,04,13,57,16.30
2013,05,04,13,58,16.30
2013,05,04,13,59,16.30
2013,05,04,14,00,16.30
2013,05,04,14,01,16.30
2013,05,04,14,02,16.40
2013,05,04,14,03,16.40
2013,05,04,14,04,16.40
2013,05,04,14,05,16.50
2013,05,04,14,06,16.50
2013,05,04,14,07,16.60
2013,05,04,14,08,16.60
2013,05,04,14,09,16.60
2013,05,04,14,10,16.60
2013,05,04,14,11,16.60
2013,05,04,14,12,16.60
2013,05,04,14,13,16.70
2013,05,04,14,14,16.70
2013,05,04,14,15,16.70
2013,05,04,14,16,16.70
2013,05,04,14,17,16.70
2013,05,04,14,18,16.70
2013,05,04,14,19,16.80
2013,05,04,14,20,16.80
2013,05,04,14,21,16.80
2013,05,04,14,22,16.80
2013,05,04,14,23,16.90
2013,05,04,14,24,16.90
2013,05,04,14,25,17.00
2013,05,04,14,26,17.00
2013,05,04,14,27,17.10
2013,05,04,14,28,17.10
2013,05,04,14,29,17.20
2013,05,04,14,30,17.30
2013,05,04,14,31,17.40
2013,05,04,14,32,17.40
2013,05,04,14,33,17.40
2013,05,04,14,34,17.50
2013,05,04,14,35,17.50
2013,05,04,14,36,17.50
2013,05,04,14,37,17.60
2013,05,04,14,38,17.60
2013,05,04,14,39,17.60
2013,05,04,14,40,17.70
2013,05,04,14,41,17.70
2013,05,04,14,42,17.80
2013,05,04,14,43,17.80
2013,05,04,14,44,17.80
2013,05,04,14,45,17.80
2013,05,04,14,46,17.80
2013,05,04,14,47,17.80
2013,05,04,14,48,17.80
2013,05,04,14,49,17.80
2013,05,04,14,50,17.80
2013,05,04,14,51,17.80
2013,05,04,14,52,17.80
2013,05,04,14,53,17.90
2013,05,04,14,54,17.90
2013,05,04,14,55,18.00
2013,05,04,14,56,18.00
2013,05,04,14,57,18.00
2013,05,04,14,58,18.10
2013,05,04,14,59,18.20
2013,05,04,15,00,18.20
2013,05,04,15,01,18.30
2013,05,04,15,02,18.50
2013,05,04,15,03,18.50
2013,05,04,15,04,18.60
2013,05,04,15,05,18.70
2013,05,04,15,06,18.80
2013,05,04,15,07,18.90
2013,05,04,15,08,19.00
2013,05,04,15,09,19.00
2013,05,04,15,10,19.10
2013,05,04,15,11,19.10
2013,05,04,15,12,19.20
2013,05,04,15,13,19.20
2013,05,04,15,14,19.20
2013,05,04,15,15,19.20
2013,05,04,15,16,19.20
2013,05,04,15,17,19.20
2013,05,04,15,18,19.20
2013,05,04,15,19,19.20
2013,05,04,15,20,19.20
2013,05,04,15,21,19.20
2013,05,04,15,22,19.30
2013,05,04,15,23,19.40
2013,05,04,15,24,19.50
2013,05,04,15,25,19.60
2013,05,04,15,26,19.70
2013,05,04,15,27,19.80
2013,05,04,15,28,19.90
2013,05,04,15,29,20.00
2013,05,04,15,30,20.00
2013,05,04,15,31,20.10
2013,05,04,15,32,20.20
2013,05,04,15,33,20.20
2013,05,04,15,34,20.20
2013,05,04,15,35,20.30
2013,05,04,15,36,20.30
2013,05,04,15,37,20.30
2013,05,04,15,38,20.30
2013,05,04,15,39,20.40
2013,05,04,15,40,20.30
2013,05,04,15,41,20.30
2013,05,04,15,42,20.30
2013,05,04,15,43,20.30
2013,05,04,15,44,20.30
2013,05,04,15,45,20.30
2013,05,04,15,46,20.40
2013,05,04,15,47,20.40
2013,05,04,15,48,20.40
2013,05,04,15,49,20.50
2013,05,04,15,50,20.50
2013,05,04,15,51,20.50
2013,05,04,15,52,20.50
2013,05,04,15,53,20.60
2013,05,04,15,54,20.60
2013,05,04,15,55,20.50
2013,05,04,15,56,20.50
2013,05,04,15,57,20.50
2013,05,04,15,58,20.50
2013,05,04,15,59,20.50
2013,05,04,16,00,20.50
2013,05,04,16,01,20.50
2013,05,04,16,02,20.50
2013,05,04,16,03,20.60
2013,05,04,16,04,20.60
2013,05,04,16,05,20.70
2013,05,04,16,06,20.80
2013,05,04,16,07,20.90
2013,05,04,16,08,21.10
2013,05,04,16,09,21.20
2013,05,04,16,10,21.30
2013,05,04,16,11,21.40
2013,05,04,16,12,21.50
2013,05,04,16,13,21.60
2013,05,04,16,14,21.60
2013,05,04,16,15,21.60
2013,05,04,16,16,21.60
2013,05,04,16,17,21.60
2013,05,04,16,18,21.70
2013,05,04,16,19,21.70
2013,05,04,16,20,21.80
2013,05,04,16,21,21.80
2013,05,04,16,22,21.80
2013,05,04,16,23,21.80
2013,05,04,16,24,21.90
2013,05,04,16,25,21.90
2013,05,04,16,26,22.00
2013,05,04,16,27,22.00
2013,05,04,16,28,22.00
2013,05,04,16,29,22.00
2013,05,04,16,30,22.00
2013,05,04,16,31,21.90
2013,05,04,16,32,21.90
2013,05,04,16,33,21.90
2013,05,04,16,34,21.80
2013,05,04,16,35,21.80
2013,05,04,16,36,21.80
2013,05,04,16,37,21.80
2013,05,04,16,38,21.80
2013,05,04,16,39,21.80
2013,05,04,16,40,21.80
2013,05,04,16,41,21.90
2013,05,04,16,42,21.90
2013,05,04,16,43,22.00
2013,05,04,16,44,22.10
2013,05,04,16,45,22.10
2013,05,04,16,46,22.10
2013,05,04,16,47,22.10
2013,05,04,16,48,22.20
2013,05,04,16,49,22.30
2013,05,04,16,50,22.30
2013,05,04,16,51,22.40
2013,05,04,16,52,22.40
2013,05,04,16,53,22.40
2013,05,04,16,54,22.40
2013,05,04,16,55,22.40
2013,05,04,16,56,22.30
2013,05,04,16,57,22.30
2013,05,04,16,58,22.30
2013,05,04,16,59,22.20
2013,05,04,17,00,22.20
2013,05,04,17,01,22.10
2013,05,04,17,02,22.10
2013,05,04,17,03,22.10
2013,05,04,17,04,22.10
2013,05,04,17,05,22.10
2013,05,04,17,06,22.10
2013,05,04,17,07,22.10
2013,05,04,17,08,22.10
2013,05,04,17,09,22.10
2013,05,04,17,10,22.00
2013,05,04,17,11,22.00
2013,05,04,17,12,21.90
2013,05,04,17,13,21.90
2013,05,04,17,14,21.90
2013,05,04,17,15,21.90
2013,05,04,17,16,22.00
2013,05,04,17,17,22.00
2013,05,04,17,18,22.10
2013,05,04,17,19,22.10
2013,05,04,17,20,22.10
2013,05,04,17,21,22.10
2013,05,04,17,22,22.20